Вернуться в каталог

STARLINK-35949

АктивенСвязьVLEO
NORAD 66630·PAYLOAD·🇺🇸 United States

Запущен Nov 23, 2025 с Vandenberg Space Force Base

Loading…

Ближайшие Пролёты (ближайшие 24 часа)

TLE

СвежийSource: CelesTrak SupGP

Эпоха: Sep 14, 2026, 21:06 UTC

1 66630C 25271P   26257.87965278 -.00014232  00000+0 -42056-3 0  2572
2 66630  53.1597 336.1154 0001281  75.5814 285.8063 15.34392369    16

Отслеживайте STARLINK-35949 в реальном времени с AllMySat

Download on the App Store